Overview Statistics Trail Chart Weather Telemetry Raw packets
 

This is the latest recevied weather packets stored in our database for station/object OK2KJT-11. If no packets are shown the sender has not sent any weather packets the latest 10 day(s).

<< 1 2 3 4 5 >>
Time Temp. Humidity Pressure Rain* Wind** Luminosity Snow
1788714466 14.44° C 49% 1027.3 hPa - - - -
1788713867 15° C 48% 1027.2 hPa - - - -
1788713267 15.56° C 47% 1027.3 hPa - - - -
1788712667 16.11° C 45% 1027.2 hPa - - - -
1788712068 16.67° C 44% 1027.3 hPa - - - -
1788711468 16.67° C 43% 1027.1 hPa - - - -
1788710868 17.22° C 42% 1027.1 hPa - - - -
1788710268 17.78° C 41% 1027.1 hPa - - - -
1788709669 17.78° C 41% 1027.3 hPa - - - -
1788709069 17.78° C 41% 1027.2 hPa - - - -
1788708469 17.78° C 41% 1027.3 hPa - - - -
1788707869 18.33° C 39% 1027.2 hPa - - - -
1788707269 18.89° C 40% 1027.3 hPa - - - -
1788706670 18.33° C 40% 1027.3 hPa - - - -
1788706076 18.33° C 40% 1027.1 hPa - - - -
1788705470 17.78° C 40% 1027.2 hPa - - - -
1788704870 17.78° C 40% 1027.1 hPa - - - -
1788704271 18.33° C 40% 1027.1 hPa - - - -
1788703071 18.33° C 40% 1027 hPa - - - -
1788702471 18.89° C 40% 1027 hPa - - - -
1788701872 18.33° C 40% 1026.9 hPa - - - -
1788701272 18.33° C 42% 1027 hPa - - - -
1788700672 17.22° C 44% 1027 hPa - - - -
1788700072 17.78° C 44% 1027 hPa - - - -
1788699472 17.78° C 44% 1027.1 hPa - - - -

* Rain since midnight (hover to see other rain measurements)
** Current wind speed in m/s (hover to see current wind gust speed)